Printer-friendly version

IAU Minor Planet Center

Minor Planet Center

MPEC 2008-G29 : 2005 GY8 = 2008 FG5

The following Minor Planet Electronic Circular may be linked-to from your own Web pages, but must not otherwise be redistributed electronically.


Read MPEC 2008-G28 Read MPEC 2008-G30


M.P.E.C. 2008-G29                                Issued 2008 Apr. 5, 20:15 UT

     The Minor Planet Electronic Circulars contain information on unusual
         minor planets and routine data on comets.  They are published
   on behalf of Commission 20 of the International Astronomical Union by the
          Minor Planet Center, Smithsonian Astrophysical Observatory,
                          Cambridge, MA 02138, U.S.A.

             Prepared using the Tamkin Foundation Computer Network

                              MPC@CFA.HARVARD.EDU
          URL http://www.cfa.harvard.edu/iau/mpc.html  ISSN 1523-6714

                              2005 GY8 = 2008 FG5

                           Revision to MPEC 2005-G21

Orbital elements:
2005 GY8 = 2008 FG5                                 PHA, Earth MOID = 0.0025 AU
Id. F. Manca
Epoch 2008 May 14.0 TT = JDT 2454600.5                  MPC
M 355.52988              (2000.0)            P               Q
n   0.33618718     Peri.  103.19380     +0.22761954     +0.97375015
a   2.0484024      Node   179.96312     -0.91140693     +0.21305794
e   0.6723834      Incl.    2.82614     -0.34282176     +0.08010599
P   2.93           H   21.8           G   0.15           U   3
Residuals in seconds of arc (or two decimals in units of degrees)
050402 G96  0.3-  0.3+    080328 F85  2.3-  0.1-    080402 H51  0.1+  0.2+
050402 G96  0.2-  0.2+    080329 147  0.1-  0.4-    080402 H51  0.5+  0.1+
050402 G96  0.1+  0.3+    080329 147  0.3-  0.5-    080402 H51  0.4-  0.2+
050402 G96  0.3-  0.1+    080329 147  0.1-  0.6-    080402 H51  0.4+  0.1-
050402 G96  0.0   0.2-    080329 204  0.2+  0.1+    080402 H51  0.2+  0.4+
050402 G96  0.5+  0.2-    080329 204  0.0   0.4-    080402 H51  0.1+  0.1+
050402 G96 (2.2-  0.7+)   080329 J95  0.1-  0.2-    080402 H51  0.4+  0.3+
050402 G96  0.7-  0.3+    080329 J95  0.1+  0.1+    080402 H51  0.2+  0.3+
050403 413  0.0   0.5+    080329 J95  0.2-  0.1-    080402 H51  0.1-  0.3+
050403 413  0.6+  0.4+    080329 H51  0.2-  0.0     080402 H55  0.2-  0.1-
050404 G96  0.3+  0.4-    080329 H51  0.2-  0.2+    080402 H55  0.1-  0.2-
050404 G96  0.3+  0.1-    080329 H51  0.4-  0.0     080402 H55  0.1-  0.2-
050404 G96  0.1-  0.0     080329 H51  0.0   0.2-    080402 F85  0.9-  0.4-
050404 G96  0.2+  0.2+    080329 H51  0.4-  0.3+    080402 F85  0.2-  0.1-
050412 715  0.1+  0.9-    080329 704  0.0   0.5+    080402 F85  0.4+  0.2+
050412 715 (1.5-  0.2+)   080329 704  0.5+  0.1+    080403 H55  0.0   0.1-
050501 715(0.04- 0.01+)   080329 704  0.5+  0.0     080403 H55  0.0   0.1-
050501 715(0.04- 0.01+)   080329 704  1.1+  0.6+    080403 H55  0.1-  0.1-
050501 715(0.04- 0.01+)   080329 704  0.9+  0.4+    080403 448  0.4-  0.0
080328 G96  0.1-  0.1-    080331 691  0.5+  0.4-    080403 448  0.1-  0.1-
080328 G96  0.2-  0.0     080331 691  0.3+  0.4-    080403 448  0.5-  0.0
080328 G96  0.1-  0.1-    080331 691  0.7+  0.4-    080403 448  0.2-  0.1-
080328 G96  0.3+  0.1+    080402 H51  0.4-  0.3+    080403 291  0.1-  0.4-
080328 854  0.4+  0.3+    080402 H51  0.0   0.2+    080403 291  0.5+  0.4+
080328 854  0.2+  1.1+    080402 H51  0.2-  0.2+    080403 291  0.1-  0.2-
080328 854  0.6+  1.2+    080402 H51  0.3-  0.1+    080404 291  0.2+  0.0
080328 G96  0.5+  0.9+    080402 H51  0.1-  0.2+    080404 291  0.3-  0.0
080328 G96  0.0   0.3+    080402 H51  0.1-  0.2+    080404 291  0.6-  0.1+
080328 G96  0.0   0.2+    080402 H51  0.1-  0.0     080405 703  0.8+  0.5+
080328 G96  0.0   0.3+    080402 H51  0.3+  0.1+    080405 703  0.5+  0.1+
080328 F85  2.4-  0.4-    080402 H51  0.5+  0.3+    080405 703  0.0   0.1-
080328 F85  2.2-  0.9-    080402 H51  0.3+  0.4+    080405 703  0.1+  0.3+

Ephemeris:
2005 GY8                 a,e,i = 2.05, 0.67, 3                   q = 0.6711
Date    TT    R. A. (2000) Decl.     Delta      r     Elong.  Phase     V
2008 04 04    14 43.92   -05 33.2    0.0887   1.080   152.5    25.3    17.9
2008 04 05    14 58.66   -04 47.6    0.0782   1.069   149.7    28.2    17.7
2008 04 06    15 17.69   -03 46.7    0.0682   1.058   145.8    32.1    17.5
2008 04 07    15 42.83   -02 23.5    0.0589   1.047   140.3    37.7    17.3
2008 04 08    16 16.64   -00 28.7    0.0505   1.036   132.5    45.4    17.1
2008 04 09    17 02.07   +02 06.3    0.0438   1.025   121.7    56.2    17.1
2008 04 10    18 00.70   +05 17.3    0.0394   1.015   107.6    70.3    17.3
2008 04 11    19 08.72   +08 30.3    0.0383   1.004    91.3    86.5    17.8
2008 04 12    20 15.77   +10 55.1    0.0405   0.993    75.4   102.3    18.6
2008 04 13    21 12.30   +12 14.0    0.0458   0.982    62.4   115.3    19.6
2008 04 14    21 55.66   +12 45.0    0.0531   0.972    52.6   124.9    20.6

Timothy B. Spahr             (C) Copyright 2008 MPC           M.P.E.C. 2008-G29

Read MPEC 2008-G28 Read MPEC 2008-G30


Our Web policy. Index to the CBAT/MPC/ICQ pages.


Valid HTML 4.01!